Time,TemperatureF,DewpointF,PressureIn,WindDirection,WindDirectionDegrees,WindSpeedMPH,WindSpeedGustMPH,Humidity,HourlyPrecipIn,Conditions,Clouds,dailyrainin,SoftwareType,DateUTC
2013-04-01 00:03:00,53.5,52.0,29.85,NW,319,0.0,0.0,96,0.00,,,0.00,weatherlink.com 1.10,2013-04-01 04:03:00,
2013-04-01 00:18:00,53.3,52.0,29.85,NW,319,0.0,0.0,96,0.00,,,0.00,weatherlink.com 1.10,2013-04-01 04:18:00,
2013-04-01 00:33:00,53.2,52.0,29.86,NW,319,0.0,0.0,96,0.00,,,0.00,weatherlink.com 1.10,2013-04-01 04:33:00,
2013-04-01 00:48:00,53.0,52.0,29.86,NW,319,0.0,0.0,96,0.00,,,0.00,weatherlink.com 1.10,2013-04-01 04:48:00,
2013-04-01 01:03:00,53.0,52.0,29.85,NW,319,0.0,0.0,96,0.00,,,0.00,weatherlink.com 1.10,2013-04-01 05:03:00,
2013-04-01 01:18:00,53.1,52.0,29.85,NW,319,0.0,0.0,96,0.00,,,0.00,weatherlink.com 1.10,2013-04-01 05:18:00,
2013-04-01 01:33:00,52.7,52.0,29.85,NW,319,0.0,0.0,96,0.00,,,0.00,weatherlink.com 1.10,2013-04-01 05:33:00,
2013-04-01 01:48:00,52.7,52.0,29.85,NW,319,0.0,1.0,96,0.00,,,0.00,weatherlink.com 1.10,2013-04-01 05:48:00,
2013-04-01 02:03:00,52.6,52.0,29.86,NW,319,0.0,0.0,96,0.00,,,0.00,weatherlink.com 1.10,2013-04-01 06:03:00,
2013-04-01 02:18:00,53.0,52.0,29.85,NW,319,0.0,0.0,97,0.00,,,0.00,weatherlink.com 1.10,2013-04-01 06:18:00,
2013-04-01 02:33:00,53.2,52.0,29.85,NW,319,0.0,0.0,97,0.00,,,0.00,weatherlink.com 1.10,2013-04-01 06:33:00,
2013-04-01 02:48:00,53.1,52.0,29.84,NW,319,0.0,0.0,97,0.01,,,0.01,weatherlink.com 1.10,2013-04-01 06:48:00,
2013-04-01 03:03:00,53.0,52.0,29.84,NW,319,0.0,0.0,97,0.01,,,0.01,weatherlink.com 1.10,2013-04-01 07:03:00,
2013-04-01 03:18:00,53.0,52.0,29.83,NW,319,0.0,0.0,97,0.01,,,0.01,weatherlink.com 1.10,2013-04-01 07:18:00,
2013-04-01 03:33:00,52.5,51.0,29.83,NW,319,0.0,1.0,96,0.01,,,0.01,weatherlink.com 1.10,2013-04-01 07:33:00,
2013-04-01 03:48:00,52.1,51.0,29.83,NW,319,0.0,0.0,97,0.00,,,0.01,weatherlink.com 1.10,2013-04-01 07:48:00,
2013-04-01 04:03:00,52.6,52.0,29.84,NW,319,0.0,0.0,97,0.00,,,0.01,weatherlink.com 1.10,2013-04-01 08:03:00,
2013-04-01 04:18:00,52.7,52.0,29.84,NW,319,0.0,0.0,97,0.00,,,0.01,weatherlink.com 1.10,2013-04-01 08:18:00,
2013-04-01 04:33:00,52.4,52.0,29.84,NW,319,0.0,0.0,97,0.00,,,0.01,weatherlink.com 1.10,2013-04-01 08:33:00,
2013-04-01 04:48:00,52.7,52.0,29.84,NW,319,0.0,0.0,97,0.01,,,0.02,weatherlink.com 1.10,2013-04-01 08:48:00,
2013-04-01 05:03:00,53.0,52.0,29.84,NW,319,0.0,0.0,97,0.02,,,0.03,weatherlink.com 1.10,2013-04-01 09:03:00,
2013-04-01 05:18:00,53.2,52.0,29.85,NW,319,0.0,0.0,97,0.02,,,0.03,weatherlink.com 1.10,2013-04-01 09:18:00,
2013-04-01 05:33:00,53.5,53.0,29.85,NW,319,0.0,0.0,98,0.02,,,0.03,weatherlink.com 1.10,2013-04-01 09:33:00,
2013-04-01 05:48:00,53.5,53.0,29.85,NW,319,0.0,0.0,97,0.01,,,0.03,weatherlink.com 1.10,2013-04-01 09:48:00,
2013-04-01 06:03:00,53.2,52.0,29.86,NW,319,0.0,0.0,97,0.00,,,0.03,weatherlink.com 1.10,2013-04-01 10:03:00,
2013-04-01 06:18:00,53.1,52.0,29.86,NW,319,0.0,0.0,97,0.00,,,0.03,weatherlink.com 1.10,2013-04-01 10:18:00,
2013-04-01 06:33:00,53.3,53.0,29.86,NW,319,0.0,1.0,98,0.00,,,0.03,weatherlink.com 1.10,2013-04-01 10:33:00,
2013-04-01 06:48:00,53.2,53.0,29.86,NW,319,0.0,0.0,98,0.00,,,0.03,weatherlink.com 1.10,2013-04-01 10:48:00,
2013-04-01 07:03:00,53.3,53.0,29.87,NW,319,0.0,0.0,98,0.00,,,0.03,weatherlink.com 1.10,2013-04-01 11:03:00,
2013-04-01 07:18:00,53.3,53.0,29.87,NW,319,0.0,0.0,98,0.00,,,0.03,weatherlink.com 1.10,2013-04-01 11:18:00,
2013-04-01 07:33:00,53.2,53.0,29.88,NW,319,0.0,0.0,98,0.00,,,0.03,weatherlink.com 1.10,2013-04-01 11:33:00,
2013-04-01 07:48:00,53.5,53.0,29.88,NW,319,0.0,0.0,98,0.00,,,0.03,weatherlink.com 1.10,2013-04-01 11:48:00,
2013-04-01 08:03:00,53.5,53.0,29.89,NW,319,0.0,0.0,98,0.00,,,0.03,weatherlink.com 1.10,2013-04-01 12:03:00,
2013-04-01 08:18:00,53.8,53.0,29.89,North,359,2.0,2.0,98,0.00,,,0.03,weatherlink.com 1.10,2013-04-01 12:18:00,
2013-04-01 08:33:00,54.3,54.0,29.90,North,358,1.0,2.0,97,0.00,,,0.03,weatherlink.com 1.10,2013-04-01 12:33:00,
2013-04-01 08:48:00,54.8,54.0,29.90,NNE,15,1.0,3.0,96,0.00,,,0.03,weatherlink.com 1.10,2013-04-01 12:48:00,
2013-04-01 09:03:00,55.2,54.0,29.90,NNW,334,2.0,5.0,94,0.00,,,0.03,weatherlink.com 1.10,2013-04-01 13:03:00,
2013-04-01 09:19:00,55.5,53.0,29.90,NNW,328,1.0,3.0,92,0.00,,,0.03,weatherlink.com 1.10,2013-04-01 13:19:00,
2013-04-01 09:34:00,55.7,53.0,29.90,NNW,330,1.0,3.0,90,0.00,,,0.03,weatherlink.com 1.10,2013-04-01 13:34:00,
2013-04-01 09:49:00,56.8,53.0,29.90,North,3,1.0,2.0,87,0.00,,,0.03,weatherlink.com 1.10,2013-04-01 13:49:00,
2013-04-01 10:04:00,58.2,52.0,29.90,NE,49,2.0,4.0,81,0.00,,,0.03,weatherlink.com 1.10,2013-04-01 14:04:00,
2013-04-01 10:19:00,60.0,51.0,29.89,NNE,18,1.0,5.0,73,0.00,,,0.03,weatherlink.com 1.10,2013-04-01 14:19:00,
2013-04-01 10:34:00,61.0,49.0,29.89,West,277,0.0,4.0,64,0.00,,,0.03,weatherlink.com 1.10,2013-04-01 14:34:00,
2013-04-01 10:49:00,61.8,47.0,29.89,NNW,339,1.0,4.0,58,0.00,,,0.03,weatherlink.com 1.10,2013-04-01 14:49:00,
2013-04-01 11:05:00,62.1,47.0,29.89,NW,321,2.0,7.0,58,0.00,,,0.03,weatherlink.com 1.10,2013-04-01 15:05:00,
2013-04-01 11:19:00,63.6,44.0,29.89,NW,323,1.0,4.0,50,0.00,,,0.03,weatherlink.com 1.10,2013-04-01 15:19:00,
2013-04-01 11:34:00,64.4,45.0,29.89,WNW,286,0.0,6.0,49,0.00,,,0.03,weatherlink.com 1.10,2013-04-01 15:34:00,
2013-04-01 11:49:00,65.4,46.0,29.89,NNW,343,1.0,5.0,49,0.00,,,0.03,weatherlink.com 1.10,2013-04-01 15:49:00,
2013-04-01 12:04:00,66.0,43.0,29.89,NE,50,2.0,6.0,43,0.00,,,0.03,weatherlink.com 1.10,2013-04-01 16:04:00,
2013-04-01 12:19:00,65.7,42.0,29.88,NW,306,4.0,5.0,43,0.00,,,0.03,weatherlink.com 1.10,2013-04-01 16:19:00,
2013-04-01 12:34:00,66.6,41.0,29.88,NW,306,2.0,7.0,40,0.00,,,0.03,weatherlink.com 1.10,2013-04-01 16:34:00,
2013-04-01 12:49:00,67.3,42.0,29.88,NW,316,5.0,7.0,40,0.00,,,0.03,weatherlink.com 1.10,2013-04-01 16:49:00,
2013-04-01 13:04:00,67.9,41.0,29.87,WSW,253,5.0,7.0,37,0.00,,,0.03,weatherlink.com 1.10,2013-04-01 17:04:00,
2013-04-01 13:19:00,68.5,42.0,29.87,NNW,342,3.0,9.0,38,0.00,,,0.03,weatherlink.com 1.10,2013-04-01 17:19:00,
2013-04-01 13:34:00,68.9,40.0,29.86,NW,321,7.0,12.0,35,0.00,,,0.03,weatherlink.com 1.10,2013-04-01 17:34:00,
2013-04-01 13:49:00,69.2,40.0,29.85,North,359,5.0,9.0,35,0.00,,,0.03,weatherlink.com 1.10,2013-04-01 17:49:00,
2013-04-01 14:04:00,70.6,42.0,29.85,NNW,348,2.0,-999.0,35,-99.99,,,0.03,weatherlink.com 1.10,2013-04-01 18:04:00,
2013-04-01 14:19:00,70.2,40.0,29.84,NW,311,9.0,13.0,34,0.00,,,0.03,weatherlink.com 1.10,2013-04-01 18:19:00,
2013-04-01 14:34:00,70.3,41.0,29.84,NW,314,6.0,8.0,35,0.00,,,0.03,weatherlink.com 1.10,2013-04-01 18:34:00,
2013-04-01 14:49:00,71.3,39.0,29.83,NW,320,8.0,11.0,31,0.00,,,0.03,weatherlink.com 1.10,2013-04-01 18:49:00,
2013-04-01 15:04:00,71.0,39.0,29.83,NW,312,3.0,11.0,31,0.00,,,0.03,weatherlink.com 1.10,2013-04-01 19:04:00,
2013-04-01 15:19:00,71.8,39.0,29.83,NNW,335,4.0,12.0,30,0.00,,,0.03,weatherlink.com 1.10,2013-04-01 19:19:00,
2013-04-01 15:36:00,71.6,39.0,29.82,NNE,27,5.0,12.0,30,0.00,,,0.03,weatherlink.com 1.10,2013-04-01 19:36:00,
2013-04-01 15:52:00,72.4,42.0,29.82,SSW,212,4.0,14.0,33,0.00,,,0.03,weatherlink.com 1.10,2013-04-01 19:52:00,
2013-04-01 16:06:00,72.3,38.0,29.82,NNW,333,4.0,12.0,29,0.00,,,0.03,weatherlink.com 1.10,2013-04-01 20:06:00,
2013-04-01 16:21:00,71.8,38.0,29.82,NNW,335,5.0,11.0,29,0.00,,,0.03,weatherlink.com 1.10,2013-04-01 20:21:00,
2013-04-01 16:37:00,71.6,39.0,29.82,NW,304,6.0,12.0,30,0.00,,,0.03,weatherlink.com 1.10,2013-04-01 20:37:00,
2013-04-01 16:51:00,71.2,39.0,29.82,NW,322,6.0,10.0,31,0.00,,,0.03,weatherlink.com 1.10,2013-04-01 20:51:00,
2013-04-01 17:06:00,71.0,39.0,29.82,NW,319,4.0,8.0,31,0.00,,,0.03,weatherlink.com 1.10,2013-04-01 21:06:00,
2013-04-01 17:21:00,70.7,38.0,29.82,NW,308,1.0,11.0,30,0.00,,,0.03,weatherlink.com 1.10,2013-04-01 21:21:00,
2013-04-01 17:36:00,70.1,39.0,29.82,North,1,7.0,10.0,32,0.00,,,0.03,weatherlink.com 1.10,2013-04-01 21:36:00,
2013-04-01 17:51:00,69.9,38.0,29.83,NW,325,3.0,7.0,31,0.00,,,0.03,weatherlink.com 1.10,2013-04-01 21:51:00,
2013-04-01 18:06:00,70.0,39.0,29.83,NW,305,4.0,9.0,32,0.00,,,0.03,weatherlink.com 1.10,2013-04-01 22:06:00,
2013-04-01 18:22:00,69.7,39.0,29.84,WNW,300,5.0,9.0,33,0.00,,,0.03,weatherlink.com 1.10,2013-04-01 22:22:00,
2013-04-01 18:36:00,69.3,39.0,29.84,North,352,3.0,8.0,33,0.00,,,0.03,weatherlink.com 1.10,2013-04-01 22:36:00,
2013-04-01 18:51:00,68.9,40.0,29.84,NNW,345,4.0,8.0,35,0.00,,,0.03,weatherlink.com 1.10,2013-04-01 22:51:00,
2013-04-01 19:07:00,67.9,39.0,29.84,NNW,328,3.0,8.0,35,0.00,,,0.03,weatherlink.com 1.10,2013-04-01 23:07:00,
2013-04-01 19:21:00,66.5,39.0,29.85,NNW,340,5.0,7.0,36,0.00,,,0.03,weatherlink.com 1.10,2013-04-01 23:21:00,
2013-04-01 19:36:00,65.1,40.0,29.86,NNW,330,1.0,3.0,40,0.00,,,0.03,weatherlink.com 1.10,2013-04-01 23:36:00,
2013-04-01 19:51:00,63.8,39.0,29.86,NNW,342,4.0,6.0,41,0.00,,,0.03,weatherlink.com 1.10,2013-04-01 23:51:00,
2013-04-01 20:07:00,63.3,39.0,29.86,NNW,338,1.0,5.0,41,0.00,,,0.03,weatherlink.com 1.10,2013-04-02 00:07:00,
2013-04-01 20:22:00,62.6,39.0,29.87,NNW,328,2.0,4.0,42,0.00,,,0.03,weatherlink.com 1.10,2013-04-02 00:22:00,
2013-04-01 20:37:00,61.9,40.0,29.87,NNW,338,1.0,2.0,44,0.00,,,0.03,weatherlink.com 1.10,2013-04-02 00:37:00,
2013-04-01 20:52:00,61.5,40.0,29.88,NNW,340,2.0,3.0,45,0.00,,,0.03,weatherlink.com 1.10,2013-04-02 00:52:00,
2013-04-01 21:08:00,61.4,39.0,29.88,NNW,338,3.0,7.0,44,0.00,,,0.03,weatherlink.com 1.10,2013-04-02 01:08:00,
2013-04-01 21:23:00,61.4,40.0,29.89,NW,323,2.0,8.0,45,0.00,,,0.03,weatherlink.com 1.10,2013-04-02 01:23:00,
2013-04-01 21:37:00,61.1,39.0,29.89,NW,321,3.0,6.0,44,0.00,,,0.03,weatherlink.com 1.10,2013-04-02 01:37:00,
2013-04-01 21:52:00,60.4,39.0,29.90,NNW,330,1.0,4.0,45,0.00,,,0.03,weatherlink.com 1.10,2013-04-02 01:52:00,
2013-04-01 22:08:00,59.3,39.0,29.91,NNW,333,1.0,2.0,47,0.00,,,0.03,weatherlink.com 1.10,2013-04-02 02:08:00,
2013-04-01 22:22:00,58.6,39.0,29.91,NNW,335,0.0,1.0,49,0.00,,,0.03,weatherlink.com 1.10,2013-04-02 02:22:00,
2013-04-01 22:37:00,55.9,40.0,29.91,NNW,340,0.0,1.0,56,0.00,,,0.03,weatherlink.com 1.10,2013-04-02 02:37:00,
2013-04-01 22:53:00,54.1,40.0,29.92,NNW,340,0.0,0.0,60,0.00,,,0.03,weatherlink.com 1.10,2013-04-02 02:53:00,
2013-04-01 23:08:00,52.8,39.0,29.93,NNW,340,0.0,1.0,60,0.00,,,0.03,weatherlink.com 1.10,2013-04-02 03:08:00,
2013-04-01 23:23:00,52.3,39.0,29.93,NNW,340,0.0,1.0,62,0.00,,,0.03,weatherlink.com 1.10,2013-04-02 03:23:00,
2013-04-01 23:39:00,52.3,39.0,29.94,NNW,340,0.0,1.0,62,0.00,,,0.03,weatherlink.com 1.10,2013-04-02 03:39:00,
2013-04-01 23:53:00,52.4,40.0,29.95,NNW,340,0.0,1.0,62,0.00,,,0.03,weatherlink.com 1.10,2013-04-02 03:53:00,